[[{"header":{"parameterUnit":"m.s-1","parameterCategory":1,"la1":30.2991,"la2":30.254,"lo1":-89.0895,"lo2":-89.0444,"dy":0.0017,"dx":0.0017,"nx":28,"ny":28,"refTime":"2025-03-21T03:00:00:Z","depth":0,"parameterNumber":2,"parameterNumberName":"U-component_of_WINDS"},"data":[0,0,0,0,0,0,0,0,0,0,0,0,0,0,0,0,0,0,0,0,0,0,0,0,0,0,0,0,0,0,0,0,0,0,0,0,0,0,0,0,0,0,0,0,0,0,0,0,0,0,0,0,0,0,0,0,0,0,2.0447,2.0447,0,2.0508,2.0509,2.0509,2.057,2.0571,2.0572,2.0573,2.0635,2.0636,2.0637,0,0,0,0,0,0,0,0,0,0,0,0,0,2.0384,2.0385,2.0447,2.0448,2.0448,2.0508,2.0509,2.0509,2.057,2.0571,2.0572,2.0573,2.0635,2.0636,2.0637,0,0,0,0,0,0,0,0,0,0,0,0,0,2.0425,2.0385,2.0447,2.0486,2.049,2.0508,2.0509,2.051,2.057,2.0571,2.0573,2.0574,2.0634,2.0636,2.0637,2.0621,0,0,2.0641,2.0642,0,0,0,0,0,0,0,0,2.0422,2.0427,2.0479,2.0483,2.0488,2.0533,2.0509,2.0547,2.057,2.054,2.0573,2.0574,2.06,2.0604,2.0613,2.0624,2.0626,2.0641,2.0642,2.0643,2.0643,0,0,0,0,0,0,0,2.042,2.0425,2.0471,2.048,2.0485,2.0501,2.0508,2.0517,2.0562,2.0542,2.0547,2.0553,2.0603,2.0612,2.0615,2.0627,2.0641,2.0642,2.0643,2.0644,2.0631,2.063,0,0,0,0,0,0,2.0411,2.0422,2.0469,2.0473,2.0458,2.0501,2.0509,2.0517,2.0562,2.057,2.0552,2.0556,2.0609,2.0613,2.0617,2.0604,2.0643,2.0644,2.0645,2.0632,2.0631,2.063,0,0,0,0,0,0,2.0409,2.0414,2.0467,2.0449,2.0457,2.0501,2.0509,2.0518,2.0527,2.057,2.0578,2.0553,2.061,2.0615,2.062,2.0606,2.0644,2.0646,2.0633,2.0632,2.063,2.0574,0,0,0,0,0,0,2.0407,2.0413,2.0407,2.0448,2.0457,2.0468,2.0509,2.0518,2.0529,2.0534,2.0573,2.058,2.0611,2.0618,2.0622,2.0609,2.0647,2.0635,2.0633,2.0631,2.0577,2.0571,2.0565,0,0,0,0,0,2.0405,2.0388,2.0406,2.0412,2.045,2.0467,2.0472,2.0508,2.0528,2.0522,2.055,2.0579,2.0607,2.0618,2.0622,2.061,2.0636,2.0633,2.0631,2.058,2.0572,2.0565,0,0,0,0,0,0,2.0344,2.0394,2.0415,2.0411,2.0434,2.0477,2.0471,2.0498,2.0516,2.052,2.0564,2.0572,2.0572,2.0592,2.0603,2.0598,2.0626,2.0624,2.0586,2.0578,2.0572,2.0568,2.0648,0,0,0,0,0,2.033,2.0339,2.0382,2.0375,2.0386,2.0426,2.0435,2.0461,2.0486,2.0496,2.0525,2.0548,2.0563,2.0572,2.0587,2.058,2.0591,2.0574,2.0568,2.0563,2.0561,2.0562,2.0556,2.0621,2.0621,2.0621,0,0,2.0301,2.033,2.0333,2.0364,2.0385,2.0394,2.0434,2.0441,2.0449,2.0497,2.0504,2.0526,2.0556,2.0555,2.0556,2.0571,2.0545,2.056,2.0555,2.0556,2.0558,2.0552,2.0547,2.0619,2.062,2.062,0,0,2.0254,2.0276,2.0274,2.0294,2.0326,2.0353,2.0353,2.0392,2.0408,2.0416,2.0454,2.0463,2.0487,2.0507,2.0521,2.0484,2.0512,2.0488,2.0455,2.0455,2.045,2.0446,2.0435,2.043,2.0485,2.0485,2.0485,0,2.0215,2.023,2.0269,2.0275,2.0288,2.0333,2.0332,2.035,2.0384,2.0393,2.0409,2.0442,2.0464,2.0471,2.0462,2.0471,2.0473,2.0484,2.0448,2.0444,2.044,2.043,2.0426,2.0482,2.0483,2.0483,2.0483,0,2.0181,2.019,2.0185,2.0218,2.0231,2.0232,2.0273,2.0281,2.0306,2.0333,2.0341,2.0371,2.0394,2.0397,2.0422,2.0408,2.0417,2.0439,2.0468,2.043,2.0422,2.0418,2.0478,2.0479,2.048,2.0481,0,0,2.0096,2.0153,2.015,2.0167,2.0206,2.0215,2.0219,2.0243,2.025,2.0273,2.0279,2.0299,2.0322,2.0337,2.0364,2.0364,2.0336,2.0388,2.0389,2.0378,2.0325,2.0309,2.0303,2.0354,2.0354,2.0353,2.0323,0,2.0057,2.0069,2.0105,2.0105,2.0116,2.016,2.0165,2.019,2.0215,2.0228,2.0256,2.027,2.0298,2.0308,2.0309,2.0339,2.0326,2.0341,2.0362,2.0362,2.0354,2.0298,2.028,2.025,2.032,2.0319,2.0319,0,2.0013,2.0034,2.0036,2.0077,2.0083,2.0086,2.0112,2.0123,2.0153,2.0172,2.019,2.0221,2.023,2.0256,2.027,2.028,2.0291,2.0307,2.0306,2.0311,2.0339,2.0302,2.0242,2.0238,2.0314,2.0314,2.0314,0,1.9954,1.9982,1.9988,2.0001,2.0048,2.005,2.0069,2.0101,2.0113,2.0136,2.0145,2.0168,2.0181,2.0199,2.0236,2.0251,2.0247,2.0275,2.0263,2.0262,2.0261,2.0261,2.0202,2.0265,2.0265,2.0266,2.0266,0,1.9907,1.9907,1.9962,1.9966,1.9968,2.001,2.0011,2.0035,2.0062,2.0072,2.0111,2.012,2.0168,2.0182,2.0211,2.022,2.0225,2.0241,2.0249,2.0238,2.0236,2.0246,2.025,2.0264,2.0265,2.0265,2.0265,0,1.9841,1.9878,1.9887,1.9932,1.9943,1.9943,1.9981,1.9987,2.0015,2.0027,2.0032,2.0076,2.0096,2.0134,2.0164,2.0183,2.0186,2.0199,2.0176,2.0181,2.0168,2.0169,2.0115,2.0111,2.0175,2.0174,2.0173,0,1.981,1.9811,1.9856,1.9865,1.9884,1.9898,1.9912,1.9954,1.9966,2.0002,2.0004,2.0026,2.0047,2.0076,2.0111,2.0134,2.0149,2.0129,2.0153,2.0143,2.0151,2.0151,2.0153,2.0123,2.0122,2.0122,2.0121,0,1.975,1.9769,1.9787,1.9812,1.9827,1.9848,1.9872,1.9877,1.9925,1.9938,1.9958,1.9974,2.0005,2.0028,2.0057,2.0079,2.0108,2.0113,2.0112,2.0102,2.0089,2.0098,2.0163,2.0114,2.0115,2.0116,2.0116,2.0116,1.9702,1.9706,1.9739,1.9758,1.978,1.9802,1.981,1.984,1.9857,1.9886,1.991,1.9929,1.9962,2.0004,2.0024,2.004,2.0054,2.0052,2.0052,2.0051,2.0047,2.0085,2.0045,2.0046,2.0046,2.0046,2.0046,0,1.9647,1.967,1.9687,1.972,1.9735,1.9762,1.979,1.9801,1.9817,1.9845,1.9865,1.9889,1.9912,1.9949,1.9975,1.9981,1.9996,1.9987,1.9988,1.9993,2.0032,2.0031,1.9975,1.9975,1.9975,1.9975,1.9975,1.9975,1.962,1.9628,1.9651,1.9672,1.9696,1.9715,1.9729,1.975,1.9772,1.9798,1.9817,1.9841,1.9874,1.9903,1.9925,1.9936,1.9945,1.9931,1.9946,1.9983,1.999,1.9996,1.9996,1.9933,1.9933,1.9906,1.9906,1.9906]},{"header":{"parameterUnit":"m.s-1","parameterCategory":1,"la1":30.2991,"la2":30.254,"lo1":-89.0895,"lo2":-89.0444,"dy":0.0017,"dx":0.0017,"nx":28,"ny":28,"refTime":"2025-03-21T03:00:00:Z","depth":0,"parameterNumber":3,"parameterNumberName":"V-component_of_WINDS"},"data":[0,0,0,0,0,0,0,0,0,0,0,0,0,0,0,0,0,0,0,0,0,0,0,0,0,0,0,0,0,0,0,0,0,0,0,0,0,0,0,0,0,0,0,0,0,0,0,0,0,0,0,0,0,0,0,0,0,0,-0.5616,-0.5617,0,-0.5757,-0.5759,-0.576,-0.5824,-0.5824,-0.5824,-0.5824,-0.5976,-0.598,-0.5984,0,0,0,0,0,0,0,0,0,0,0,0,0,-0.5406,-0.541,-0.5616,-0.5617,-0.5619,-0.5757,-0.5759,-0.5761,-0.5824,-0.5824,-0.5824,-0.5824,-0.5974,-0.5979,-0.5984,0,0,0,0,0,0,0,0,0,0,0,0,0,-0.5518,-0.5411,-0.5615,-0.5667,-0.5673,-0.5756,-0.5759,-0.5761,-0.5825,-0.5824,-0.5824,-0.5824,-0.5973,-0.5979,-0.5985,-0.6029,0,0,-0.6004,-0.6007,0,0,0,0,0,0,0,0,-0.5511,-0.5525,-0.5658,-0.5664,-0.5671,-0.5773,-0.5741,-0.5851,-0.5825,-0.5767,-0.5824,-0.5824,-0.5909,-0.592,-0.5948,-0.6036,-0.6043,-0.6005,-0.6009,-0.6011,-0.6013,0,0,0,0,0,0,0,-0.5503,-0.552,-0.5672,-0.566,-0.5668,-0.5686,-0.5701,-0.5762,-0.5838,-0.5772,-0.5777,-0.5793,-0.5912,-0.5941,-0.5952,-0.6045,-0.6005,-0.601,-0.6014,-0.6017,-0.6176,-0.6177,0,0,0,0,0,0,-0.5486,-0.5513,-0.5667,-0.5676,-0.5588,-0.5689,-0.5707,-0.574,-0.5837,-0.5852,-0.5793,-0.5795,-0.5931,-0.5944,-0.5957,-0.6015,-0.6011,-0.6017,-0.6021,-0.6176,-0.6177,-0.6177,0,0,0,0,0,0,-0.5482,-0.5499,-0.5662,-0.5596,-0.5618,-0.5693,-0.5731,-0.5743,-0.5772,-0.5853,-0.5867,-0.5808,-0.5931,-0.5948,-0.601,-0.6021,-0.602,-0.6026,-0.6175,-0.6176,-0.6177,-0.6131,0,0,0,0,0,0,-0.5475,-0.5497,-0.5514,-0.5595,-0.5621,-0.571,-0.5731,-0.5746,-0.5782,-0.5787,-0.5871,-0.5885,-0.5932,-0.6,-0.6016,-0.603,-0.6031,-0.6175,-0.6176,-0.6177,-0.6132,-0.613,-0.6128,0,0,0,0,0,-0.5468,-0.5497,-0.5514,-0.5532,-0.5642,-0.5711,-0.5726,-0.5777,-0.5783,-0.5801,-0.5852,-0.5882,-0.6017,-0.6006,-0.6025,-0.604,-0.6174,-0.6176,-0.6177,-0.6133,-0.613,-0.6128,0,0,0,0,0,0,-0.5417,-0.5509,-0.5529,-0.5585,-0.5639,-0.5721,-0.5746,-0.5773,-0.5829,-0.5831,-0.5895,-0.5914,-0.597,-0.6012,-0.5998,-0.6088,-0.6099,-0.6103,-0.6059,-0.6057,-0.6056,-0.6045,-0.6036,0,0,0,0,0,-0.5412,-0.5458,-0.5536,-0.5578,-0.5604,-0.5669,-0.5701,-0.5736,-0.5796,-0.582,-0.5876,-0.5935,-0.5991,-0.6026,-0.6082,-0.6138,-0.6158,-0.6158,-0.6156,-0.6154,-0.6158,-0.6191,-0.6192,-0.6181,-0.6181,-0.6181,0,0,-0.5403,-0.5459,-0.5484,-0.5569,-0.5615,-0.5663,-0.5689,-0.5739,-0.5775,-0.5829,-0.589,-0.5933,-0.6003,-0.6061,-0.609,-0.6098,-0.6165,-0.6155,-0.6153,-0.6159,-0.6192,-0.6193,-0.6193,-0.6181,-0.6181,-0.6181,0,0,-0.5411,-0.5457,-0.5497,-0.5542,-0.561,-0.5653,-0.5663,-0.574,-0.577,-0.5832,-0.5873,-0.5918,-0.6013,-0.606,-0.6097,-0.6121,-0.6151,-0.6137,-0.6129,-0.616,-0.6161,-0.6162,-0.6171,-0.6173,-0.6141,-0.6141,-0.614,0,-0.5392,-0.5463,-0.5514,-0.5561,-0.5598,-0.5645,-0.5687,-0.5729,-0.5813,-0.5838,-0.5844,-0.5963,-0.6014,-0.6084,-0.6089,-0.6117,-0.6131,-0.6129,-0.6156,-0.6158,-0.616,-0.6169,-0.6172,-0.6138,-0.6139,-0.6139,-0.6139,0,-0.5436,-0.5485,-0.5509,-0.5586,-0.5625,-0.5669,-0.5729,-0.5763,-0.5794,-0.5836,-0.5899,-0.5961,-0.6029,-0.6048,-0.6081,-0.6123,-0.6126,-0.6143,-0.6155,-0.6158,-0.6167,-0.6171,-0.6135,-0.6136,-0.6137,-0.6137,0,0,-0.5419,-0.5521,-0.5529,-0.5564,-0.5642,-0.5682,-0.5728,-0.5793,-0.5821,-0.5877,-0.5918,-0.5996,-0.6012,-0.6053,-0.6091,-0.6118,-0.6133,-0.6133,-0.6135,-0.6131,-0.6185,-0.6171,-0.6174,-0.6153,-0.6154,-0.6154,-0.6179,0,-0.5437,-0.552,-0.5566,-0.563,-0.5676,-0.5721,-0.5762,-0.5815,-0.5856,-0.5903,-0.5949,-0.6003,-0.602,-0.6045,-0.6074,-0.6125,-0.6145,-0.6124,-0.6194,-0.6195,-0.6175,-0.618,-0.6166,-0.6186,-0.6183,-0.6184,-0.6184,0,-0.5471,-0.5523,-0.559,-0.5662,-0.5683,-0.5718,-0.5781,-0.5824,-0.5886,-0.5914,-0.5958,-0.5995,-0.6048,-0.6054,-0.6128,-0.6112,-0.6143,-0.6173,-0.6175,-0.6184,-0.619,-0.619,-0.6194,-0.6197,-0.6191,-0.619,-0.619,0,-0.5451,-0.5538,-0.559,-0.5618,-0.5703,-0.5727,-0.5764,-0.5825,-0.586,-0.5915,-0.5939,-0.6001,-0.6035,-0.6082,-0.6135,-0.6135,-0.6203,-0.6215,-0.6229,-0.6228,-0.6243,-0.6241,-0.6253,-0.6261,-0.6261,-0.6261,-0.6261,0,-0.5468,-0.5508,-0.5582,-0.5613,-0.5659,-0.5713,-0.5758,-0.5799,-0.5852,-0.5894,-0.5938,-0.5976,-0.6044,-0.6091,-0.6133,-0.6188,-0.6203,-0.6228,-0.6239,-0.6225,-0.6221,-0.6247,-0.6247,-0.6262,-0.6262,-0.6262,-0.6262,0,-0.5454,-0.5505,-0.5564,-0.5638,-0.5658,-0.5689,-0.5754,-0.5787,-0.5829,-0.5881,-0.5897,-0.5964,-0.6022,-0.6079,-0.6158,-0.6186,-0.6241,-0.6255,-0.6219,-0.6225,-0.6237,-0.6235,-0.6266,-0.6273,-0.6275,-0.6275,-0.6275,0,-0.5462,-0.5493,-0.557,-0.5599,-0.5634,-0.5682,-0.5717,-0.5771,-0.5807,-0.5878,-0.5903,-0.5964,-0.6015,-0.6106,-0.6163,-0.6224,-0.624,-0.6247,-0.625,-0.6234,-0.6241,-0.6239,-0.6243,-0.6246,-0.6245,-0.6245,-0.6245,0,-0.547,-0.5493,-0.5541,-0.5598,-0.5638,-0.5686,-0.5736,-0.5758,-0.5822,-0.586,-0.5918,-0.5958,-0.6037,-0.6097,-0.6163,-0.6204,-0.6236,-0.6243,-0.625,-0.6236,-0.6214,-0.6226,-0.6215,-0.6242,-0.6243,-0.6243,-0.6243,-0.6243,-0.5469,-0.5498,-0.5555,-0.5607,-0.565,-0.5694,-0.5729,-0.5774,-0.5823,-0.5889,-0.5919,-0.5978,-0.6039,-0.6131,-0.617,-0.6218,-0.6227,-0.6236,-0.6239,-0.6241,-0.6238,-0.6205,-0.6231,-0.6231,-0.6231,-0.6231,-0.6231,0,-0.5479,-0.5518,-0.5565,-0.5631,-0.5672,-0.5695,-0.5751,-0.5784,-0.5834,-0.5887,-0.5936,-0.6003,-0.6061,-0.6121,-0.6183,-0.621,-0.6226,-0.6225,-0.6224,-0.6233,-0.6227,-0.6215,-0.621,-0.621,-0.621,-0.621,-0.621,-0.621,-0.549,-0.554,-0.557,-0.5642,-0.5682,-0.5737,-0.5767,-0.5809,-0.5851,-0.5923,-0.597,-0.6008,-0.6065,-0.6131,-0.6185,-0.6202,-0.6223,-0.6217,-0.6238,-0.6232,-0.6233,-0.6234,-0.6224,-0.6221,-0.6221,-0.624,-0.6241,-0.6241]}]]